^^
Your Local Weather - Clay, NY Station Historical Data
Daily Summary for February 18, 2018 Units:  Metric    English   Both
« Previous Day
Next Day »
Daily Weekly Monthly Yearly Custom
  High: Low: Average:
Temperature: 3.3 °C -3.4 °C -0.5 °C
Dew Point: -1.9 °C -6.3 °C -4.1 °C
Humidity: 91% 55% 78%
Wind Speed: 6.4km/h 0km/h 2.7km/h
Wind Gust: 16.1km/h - -
Wind- - WSW
Pressure: 1030 hPa 1013.4 hPa -
Precipitation: 1.78 mm    
Historical Graphs
 
 
Tabular Data for February 18, 2018
Time Temperature Dew Point Pressure Wind Wind Speed Wind Gust Humidity Rainfall Rate (Hourly) solar
00:03 -1.4 °C -2.9 °C 1013.8 hPa Calm     89% 0 mm 0 W/m2
00:09 -1.4 °C -2.9 °C 1013.4 hPa Calm     89% 0 mm 0 W/m2
00:22 -1.3 °C -2.9 °C 1013.4 hPa Calm     89% 0 mm 0 W/m2
00:28 -1.3 °C -2.9 °C 1013.4 hPa Calm     89% 0 mm 0 W/m2
00:33 -1.3 °C -2.9 °C 1013.4 hPa Calm     89% 0 mm 0 W/m2
00:39 -1.3 °C -2.9 °C 1013.4 hPa Calm     89% 0 mm 0 W/m2
00:45 -1.3 °C -2.8 °C 1013.4 hPa Calm     90% 0 mm 0 W/m2
00:52 -1.3 °C -2.8 °C 1013.4 hPa Calm     90% 0 mm 0 W/m2
00:58 -1.3 °C -2.8 °C 1013.4 hPa Calm     90% 0 mm 0 W/m2
01:04 -1.3 °C -2.8 °C 1013.4 hPa Calm     90% 0 mm 0 W/m2
01:10 -1.3 °C -2.7 °C 1013.4 hPa Calm     90% 0 mm 0 W/m2
01:16 -1.3 °C -2.7 °C 1013.4 hPa Calm   1.6 km/h 90% 0 mm 0 W/m2
01:22 -1.3 °C -2.7 °C 1013.4 hPa Calm     90% 0 mm 0 W/m2
01:28 -1.2 °C -2.7 °C 1013.8 hPa SW 1.6 km/h 1.6 km/h 90% 0 mm 0 W/m2
01:34 -1.2 °C -2.7 °C 1014.1 hPa West 1.6 km/h 1.6 km/h 90% 0 mm 0 W/m2
01:40 -1.2 °C -2.7 °C 1014.1 hPa Calm   1.6 km/h 90% 0 mm 0 W/m2
01:46 -1.2 °C -2.7 °C 1014.1 hPa WSW 1.6 km/h 1.6 km/h 90% 0 mm 0 W/m2
01:52 -1.2 °C -2.5 °C 1014.1 hPa West 1.6 km/h 3.2 km/h 91% 0 mm 0 W/m2
01:58 -1.2 °C -2.5 °C 1014.4 hPa West 1.6 km/h 4.8 km/h 91% 0 mm 0 W/m2
02:04 -1.3 °C -2.6 °C 1014.4 hPa WSW 1.6 km/h 4.8 km/h 91% 0 mm 0 W/m2
02:16 -1.3 °C -2.6 °C 1015.1 hPa WNW 4.8 km/h 4.8 km/h 91% 0 mm 0 W/m2
02:22 -1.4 °C -2.7 °C 1015.1 hPa WNW 4.8 km/h 6.4 km/h 91% 0 mm 0 W/m2
02:28 -1.6 °C -2.8 °C 1015.1 hPa West 4.8 km/h 6.4 km/h 91% 0 mm 0 W/m2
02:34 -1.7 °C -3 °C 1015.5 hPa NW 3.2 km/h 8 km/h 91% 0 mm 0 W/m2
02:40 -1.7 °C -3 °C 1015.5 hPa NW 3.2 km/h 3.2 km/h 91% 0 mm 0 W/m2
02:46 -1.7 °C -3 °C 1015.8 hPa WNW 3.2 km/h 3.2 km/h 91% 0 mm 0 W/m2
02:52 -1.8 °C -3.1 °C 1015.8 hPa NW 3.2 km/h 4.8 km/h 91% 0 mm 0 W/m2
02:58 -1.8 °C -3.1 °C 1015.8 hPa West 3.2 km/h 4.8 km/h 91% 0 mm 0 W/m2
03:04 -1.8 °C -3.1 °C 1015.8 hPa West 3.2 km/h 4.8 km/h 91% 0 mm 0 W/m2
03:10 -1.9 °C -3.2 °C 1015.8 hPa West 1.6 km/h 1.6 km/h 91% 0 mm 0 W/m2
03:16 -1.9 °C -3.2 °C 1016.1 hPa WSW 1.6 km/h 3.2 km/h 91% 0 mm 0 W/m2
03:22 -2 °C -3.3 °C 1016.1 hPa WSW 3.2 km/h 3.2 km/h 91% 0 mm 0 W/m2
03:28 -2.1 °C -3.3 °C 1016.1 hPa NW 3.2 km/h 8 km/h 91% 0 mm 0 W/m2
03:34 -2.1 °C -3.3 °C 1016.1 hPa WNW 3.2 km/h 3.2 km/h 91% 0 mm 0 W/m2
03:42 -2.1 °C -3.4 °C 1016.5 hPa WNW 1.6 km/h 1.6 km/h 91% 0 mm 0 W/m2
03:48 -2.2 °C -3.4 °C 1016.1 hPa WNW 1.6 km/h 1.6 km/h 91% 0 mm 0 W/m2
03:54 -2.2 °C -3.4 °C 1016.5 hPa West 1.6 km/h 3.2 km/h 91% 0 mm 0 W/m2
04:00 -2.1 °C -3.6 °C 1016.8 hPa West 1.6 km/h 3.2 km/h 90% 0 mm 0 W/m2
04:06 -2.1 °C -3.6 °C 1017.2 hPa West 1.6 km/h 3.2 km/h 90% 0 mm 0 W/m2
04:18 -2.1 °C -3.6 °C 1017.5 hPa West 1.6 km/h 4.8 km/h 90% 0 mm 0 W/m2
04:24 -2.1 °C -3.6 °C 1017.8 hPa West 1.6 km/h 1.6 km/h 90% 0 mm 0 W/m2
04:30 -2.1 °C -3.6 °C 1017.8 hPa West 1.6 km/h 3.2 km/h 90% 0 mm 0 W/m2
04:36 -2.1 °C -3.5 °C 1017.8 hPa WSW 1.6 km/h 3.2 km/h 90% 0 mm 0 W/m2
04:42 -2.1 °C -3.5 °C 1017.8 hPa WSW 1.6 km/h 4.8 km/h 90% 0 mm 0 W/m2
04:48 -2.1 °C -3.5 °C 1018.2 hPa WSW 1.6 km/h 4.8 km/h 90% 0 mm 0 W/m2
04:54 -2 °C -3.4 °C 1018.2 hPa WSW 1.6 km/h 6.4 km/h 90% 0 mm 0 W/m2
05:00 -2 °C -3.4 °C 1018.5 hPa WSW 1.6 km/h 3.2 km/h 90% 0 mm 0 W/m2
05:06 -2.1 °C -3.6 °C 1018.8 hPa WSW 1.6 km/h 3.2 km/h 89% 0 mm 0 W/m2
05:12 -2.1 °C -3.7 °C 1018.8 hPa WSW 1.6 km/h 1.6 km/h 89% 0 mm 0 W/m2
05:18 -2.1 °C -3.7 °C 1018.8 hPa WSW 3.2 km/h 4.8 km/h 89% 0 mm 0 W/m2
05:24 -2.2 °C -3.7 °C 1019.2 hPa WSW 3.2 km/h 3.2 km/h 89% 0 mm 0 W/m2
05:30 -2.3 °C -3.8 °C 1019.2 hPa WSW 1.6 km/h 1.6 km/h 89% 0 mm 0 W/m2
05:36 -2.4 °C -4 °C 1019.5 hPa WSW 1.6 km/h 4.8 km/h 89% 0 mm 0 W/m2
05:42 -2.4 °C -4 °C 1019.9 hPa WSW 1.6 km/h 1.6 km/h 89% 0 mm 0 W/m2
05:48 -2.4 °C -3.9 °C 1019.9 hPa WSW 1.6 km/h 3.2 km/h 89% 0 mm 0 W/m2
05:54 -2.2 °C -3.8 °C 1019.9 hPa SW 3.2 km/h 4.8 km/h 89% 0 mm 0 W/m2
06:00 -2.2 °C -3.7 °C 1019.9 hPa WSW 3.2 km/h 3.2 km/h 89% 0 mm 0 W/m2
06:06 -2.1 °C -3.7 °C 1020.2 hPa WSW 3.2 km/h 11.3 km/h 89% 0 mm 0 W/m2
06:12 -1.9 °C -3.7 °C 1020.2 hPa West 4.8 km/h 9.7 km/h 88% 0 mm 0 W/m2
06:18 -1.8 °C -3.6 °C 1020.5 hPa WSW 4.8 km/h 9.7 km/h 88% 0 mm 0 W/m2
06:24 -1.8 °C -3.6 °C 1020.5 hPa WSW 4.8 km/h 4.8 km/h 88% 0 mm 0 W/m2
06:30 -1.8 °C -3.6 °C 1020.9 hPa West 3.2 km/h 3.2 km/h 88% 0 mm 0 W/m2
06:36 -1.8 °C -3.6 °C 1021.2 hPa SW 3.2 km/h 4.8 km/h 88% 0 mm 0 W/m2
06:42 -1.8 °C -3.5 °C 1021.2 hPa SW 3.2 km/h 6.4 km/h 88% 0 mm 0 W/m2
06:48 -1.8 °C -3.5 °C 1020.9 hPa SW 3.2 km/h 6.4 km/h 88% 0 mm 0 W/m2
06:54 -1.8 °C -3.7 °C 1020.9 hPa WSW 3.2 km/h 3.2 km/h 87% 0 mm 0 W/m2
07:00 -1.8 °C -3.7 °C 1021.2 hPa WSW 1.6 km/h 8 km/h 87% 0 mm 0 W/m2
07:06 -1.8 °C -3.7 °C 1021.6 hPa WSW 1.6 km/h 8 km/h 87% 0 mm 0 W/m2
07:12 -1.7 °C -3.6 °C 1021.9 hPa SSW 3.2 km/h 3.2 km/h 87% 0 mm 0 W/m2
07:18 -1.7 °C -3.6 °C 1022.6 hPa SW 4.8 km/h 6.4 km/h 87% 0 mm 0 W/m2
07:24 -1.7 °C -3.6 °C 1022.6 hPa West 4.8 km/h 8 km/h 87% 0 mm 0 W/m2
07:30 -1.7 °C -3.6 °C 1022.9 hPa West 4.8 km/h 4.8 km/h 87% 0 mm 0 W/m2
07:36 -1.7 °C -3.6 °C 1022.9 hPa WSW 4.8 km/h 6.4 km/h 87% 0 mm 5 W/m2
07:42 -1.7 °C -3.6 °C 1023.2 hPa WSW 4.8 km/h 4.8 km/h 87% 0 mm 9 W/m2
07:48 -1.6 °C -3.7 °C 1023.2 hPa SSW 4.8 km/h 6.4 km/h 86% 0 mm 11 W/m2
07:54 -1.6 °C -3.7 °C 1023.6 hPa WSW 4.8 km/h 4.8 km/h 86% 0 mm 9 W/m2
08:00 -1.6 °C -3.6 °C 1023.6 hPa West 4.8 km/h 4.8 km/h 86% 0 mm 7 W/m2
08:06 -1.6 °C -3.6 °C 1023.6 hPa WSW 3.2 km/h 6.4 km/h 86% 0 mm 5 W/m2
08:12 -1.5 °C -3.6 °C 1023.9 hPa WNW 4.8 km/h 4.8 km/h 86% 0 mm 9 W/m2
08:18 -1.4 °C -3.5 °C 1023.9 hPa WSW 4.8 km/h 4.8 km/h 86% 0 mm 11 W/m2
08:24 -1.4 °C -3.4 °C 1024.6 hPa WSW 4.8 km/h 6.4 km/h 86% 0 mm 12 W/m2
08:30 -1.3 °C -3.4 °C 1024.6 hPa WSW 3.2 km/h 3.2 km/h 86% 0 mm 19 W/m2
08:36 -1.2 °C -3.4 °C 1024.9 hPa West 4.8 km/h 9.7 km/h 85% 0 mm 30 W/m2
08:42 -1.2 °C -3.4 °C 1024.9 hPa WSW 4.8 km/h 6.4 km/h 85% 0 mm 47 W/m2
08:48 -1.1 °C -3.3 °C 1024.9 hPa NW 4.8 km/h 6.4 km/h 85% 0 mm 65 W/m2
08:54 -0.9 °C -3.2 °C 1024.6 hPa WNW 6.4 km/h 9.7 km/h 85% 0 mm 47 W/m2
09:00 -0.8 °C -3.2 °C 1024.6 hPa WNW 4.8 km/h 4.8 km/h 84% 0 mm 58 W/m2
09:06 -0.7 °C -3.1 °C 1024.6 hPa WNW 3.2 km/h 4.8 km/h 84% 0 mm 67 W/m2
09:12 -0.6 °C -3.1 °C 1024.6 hPa NW 3.2 km/h 4.8 km/h 83% 0 mm 107 W/m2
09:18 -0.4 °C -3.2 °C 1024.6 hPa NW 3.2 km/h 4.8 km/h 82% 0 mm 74 W/m2
09:24 -0.4 °C -3.2 °C 1024.6 hPa WSW 4.8 km/h 4.8 km/h 82% 0 mm 58 W/m2
09:30 -0.4 °C -3.2 °C 1024.6 hPa West 4.8 km/h 4.8 km/h 82% 0 mm 54 W/m2
09:36 -0.4 °C -3.2 °C 1024.6 hPa West 3.2 km/h 4.8 km/h 82% 0 mm 54 W/m2
09:42 -0.4 °C -3.1 °C 1024.9 hPa WSW 1.6 km/h 3.2 km/h 82% 0 mm 54 W/m2
09:48 -0.3 °C -3.1 °C 1024.9 hPa WNW 1.6 km/h 4.8 km/h 82% 0 mm 58 W/m2
09:54 -0.3 °C -3.2 °C 1024.9 hPa WSW 3.2 km/h 6.4 km/h 81% 0 mm 60 W/m2
10:00 -0.3 °C -3.2 °C 1024.9 hPa WNW 3.2 km/h 4.8 km/h 81% 0 mm 49 W/m2
10:06 -0.3 °C -3.1 °C 1025.3 hPa West 3.2 km/h 6.4 km/h 82% 0 mm 46 W/m2
10:12 -0.3 °C -3.2 °C 1025.3 hPa WNW 4.8 km/h 6.4 km/h 81% 0 mm 47 W/m2
10:18 -0.3 °C -3.1 °C 1025.3 hPa West 4.8 km/h 6.4 km/h 82% 0 mm 56 W/m2
10:24 -0.3 °C -3 °C 1025.3 hPa WSW 4.8 km/h 4.8 km/h 82% 0 mm 72 W/m2
10:30 -0.2 °C -2.9 °C 1025.3 hPa WNW 4.8 km/h 4.8 km/h 82% 0 mm 74 W/m2
10:36 -0.1 °C -3 °C 1025.3 hPa WNW 4.8 km/h 6.4 km/h 81% 0 mm 72 W/m2
10:42 0 °C -2.9 °C 1025.3 hPa West 3.2 km/h 3.2 km/h 81% 0 mm 70 W/m2
10:48 0.1 °C -3 °C 1025.3 hPa WNW 3.2 km/h 4.8 km/h 80% 0 mm 60 W/m2
10:54 0.1 °C -2.9 °C 1025.3 hPa WNW 3.2 km/h 3.2 km/h 80% 0 mm 51 W/m2
11:00 0.1 °C -3.1 °C 1025.3 hPa West 3.2 km/h 3.2 km/h 79% 0 mm 58 W/m2
11:06 0.2 °C -3.1 °C 1025.3 hPa WNW 4.8 km/h 8 km/h 79% 0 mm 56 W/m2
11:12 0.2 °C -3.1 °C 1025.6 hPa NW 4.8 km/h 6.4 km/h 79% 0 mm 60 W/m2
11:18 0.2 °C -3.1 °C 1025.6 hPa WNW 4.8 km/h 8 km/h 79% 0 mm 65 W/m2
11:24 0.2 °C -3 °C 1025.6 hPa West 4.8 km/h 6.4 km/h 79% 0 mm 84 W/m2
11:30 0.3 °C -2.9 °C 1025.6 hPa WNW 4.8 km/h 4.8 km/h 79% 0 mm 84 W/m2
11:36 0.4 °C -2.8 °C 1026 hPa WNW 3.2 km/h 4.8 km/h 79% 0 mm 83 W/m2
11:42 0.5 °C -2.9 °C 1026.3 hPa WNW 1.6 km/h 3.2 km/h 78% 0 mm 90 W/m2
11:48 0.6 °C -2.8 °C 1026.3 hPa WNW 3.2 km/h 6.4 km/h 78% 0 mm 121 W/m2
11:54 0.8 °C -2.8 °C 1026.3 hPa WSW 4.8 km/h 4.8 km/h 77% 0 mm 204 W/m2
12:00 1.1 °C -2.9 °C 1026.3 hPa WNW 3.2 km/h 3.2 km/h 75% 1.02 mm 243 W/m2
12:06 1.1 °C -2.8 °C 1026.3 hPa WSW 3.2 km/h 6.4 km/h 75% 1.02 mm 225 W/m2
12:12 1.1 °C -2.9 °C 1026.6 hPa West 4.8 km/h 9.7 km/h 75% 1.02 mm 243 W/m2
12:18 1.1 °C -2.9 °C 1026.6 hPa WSW 6.4 km/h 9.7 km/h 75% 0 mm 230 W/m2
12:24 1.1 °C -3 °C 1026.6 hPa WSW 6.4 km/h 8 km/h 74% 0 mm 246 W/m2
12:30 1.2 °C -2.9 °C 1026.6 hPa WSW 4.8 km/h 4.8 km/h 74% 0 mm 204 W/m2
12:36 1.1 °C -3 °C 1026.6 hPa WSW 4.8 km/h 6.4 km/h 74% 0 mm 179 W/m2
12:42 2.3 °C -2.3 °C 1026.3 hPa WSW 4.8 km/h 9.7 km/h 72% 0 mm 719 W/m2
12:48 2.6 °C -1.9 °C 1026.3 hPa WSW 3.2 km/h 9.7 km/h 72% 0 mm 599 W/m2
12:54 2.4 °C -2.6 °C 1026.3 hPa WSW 4.8 km/h 11.3 km/h 70% 0 mm 429 W/m2
13:00 1.9 °C -2.8 °C 1026.3 hPa WSW 6.4 km/h 6.4 km/h 71% 0 mm 345 W/m2
13:06 1.8 °C -2.9 °C 1026.3 hPa SW 4.8 km/h 8 km/h 71% 0 mm 192 W/m2
13:12 2.4 °C -2.3 °C 1026.3 hPa WSW 4.8 km/h 9.7 km/h 71% 0 mm 610 W/m2
13:18 3 °C -2.3 °C 1026.3 hPa SW 4.8 km/h 9.7 km/h 68% 0 mm 599 W/m2
13:24 2.5 °C -3 °C 1026.3 hPa West 6.4 km/h 8 km/h 67% 0 mm 306 W/m2
13:30 2.4 °C -2.9 °C 1026.3 hPa WSW 6.4 km/h 14.5 km/h 68% 0 mm 450 W/m2
13:36 2.8 °C -3.2 °C 1026.3 hPa West 6.4 km/h 16.1 km/h 65% 0 mm 320 W/m2
13:42 2.5 °C -3.6 °C 1026.3 hPa NW 6.4 km/h 9.7 km/h 64% 0 mm 327 W/m2
13:48 2.5 °C -3.6 °C 1026.3 hPa NW 6.4 km/h 9.7 km/h 64% 0 mm 352 W/m2
13:54 2.6 °C -3.6 °C 1026.6 hPa WNW 6.4 km/h 8 km/h 64% 0 mm 236 W/m2
14:00 2.4 °C -3.7 °C 1026.6 hPa WNW 4.8 km/h 4.8 km/h 64% 0 mm 178 W/m2
14:06 2.4 °C -3.5 °C 1026.6 hPa WNW 3.2 km/h 4.8 km/h 65% 0 mm 250 W/m2
14:12 2.7 °C -3.4 °C 1026.6 hPa WSW 4.8 km/h 4.8 km/h 64% 0 mm 357 W/m2
14:18 2.8 °C -3.4 °C 1026.6 hPa West 4.8 km/h 6.4 km/h 64% 0 mm 243 W/m2
14:24 2.8 °C -3.6 °C 1027 hPa WNW 4.8 km/h 6.4 km/h 63% 0 mm 302 W/m2
14:30 2.9 °C -4.1 °C 1026.6 hPa WSW 4.8 km/h 8 km/h 60% 0 mm 598 W/m2
14:36 3 °C -4.7 °C 1026.6 hPa SW 6.4 km/h 8 km/h 57% 0 mm 253 W/m2
14:42 2.9 °C -4.6 °C 1026.6 hPa WNW 4.8 km/h 8 km/h 58% 0 mm 174 W/m2
14:48 2.9 °C -5.1 °C 1026.6 hPa NW 4.8 km/h 8 km/h 56% 0 mm 165 W/m2
14:54 2.7 °C -4.9 °C 1027 hPa WNW 4.8 km/h 8 km/h 57% 0 mm 155 W/m2
15:00 2.7 °C -4.6 °C 1027 hPa SW 4.8 km/h 4.8 km/h 59% 0 mm 155 W/m2
15:06 2.7 °C -4.7 °C 1027 hPa WSW 3.2 km/h 8 km/h 58% 0 mm 149 W/m2
15:12 2.6 °C -4.6 °C 1027 hPa SW 4.8 km/h 8 km/h 59% 0 mm 144 W/m2
15:18 2.6 °C -5.3 °C 1027 hPa SW 4.8 km/h 8 km/h 56% 0 mm 148 W/m2
15:24 2.6 °C -4.9 °C 1027 hPa WNW 4.8 km/h 4.8 km/h 58% 0 mm 127 W/m2
15:30 2.6 °C -5.3 °C 1027 hPa West 3.2 km/h 3.2 km/h 56% 0 mm 139 W/m2
15:36 2.7 °C -4.9 °C 1027 hPa West 3.2 km/h 3.2 km/h 57% 0 mm 134 W/m2
15:42 2.7 °C -5.2 °C 1027 hPa SW 3.2 km/h 4.8 km/h 56% 0 mm 141 W/m2
15:48 2.7 °C -5.2 °C 1027 hPa SW 3.2 km/h 6.4 km/h 56% 0 mm 107 W/m2
15:54 2.7 °C -5.4 °C 1027 hPa West 3.2 km/h 4.8 km/h 55% 0 mm 100 W/m2
16:00 2.7 °C -5.2 °C 1027 hPa WSW 3.2 km/h 3.2 km/h 56% 0 mm 241 W/m2
16:06 2.9 °C -5 °C 1027 hPa SW 4.8 km/h 6.4 km/h 56% 0 mm 250 W/m2
16:12 3.3 °C -4.9 °C 1027.3 hPa West 3.2 km/h 6.4 km/h 55% 0 mm 237 W/m2
16:18 3.1 °C -4.8 °C 1027.3 hPa WSW 4.8 km/h 6.4 km/h 56% 0 mm 178 W/m2
16:24 2.9 °C -4.8 °C 1027.7 hPa South 4.8 km/h 11.3 km/h 57% 0 mm 100 W/m2
16:30 2.8 °C -4.4 °C 1027.7 hPa West 4.8 km/h 4.8 km/h 59% 0 mm 84 W/m2
16:36 2.7 °C -4.7 °C 1027.7 hPa WNW 4.8 km/h 6.4 km/h 58% 0 mm 88 W/m2
16:42 2.6 °C -4.9 °C 1028 hPa SW 6.4 km/h 8 km/h 58% 0 mm 70 W/m2
16:48 2.4 °C -4.8 °C 1028 hPa WSW 4.8 km/h 8 km/h 59% 0 mm 58 W/m2
16:54 2.3 °C -4.7 °C 1028 hPa SW 3.2 km/h 6.4 km/h 60% 0 mm 44 W/m2
17:00 2.1 °C -4.8 °C 1028 hPa SW 1.6 km/h 1.6 km/h 60% 0 mm 32 W/m2
17:06 1.9 °C -4.8 °C 1028.3 hPa SW 1.6 km/h 4.8 km/h 61% 0 mm 23 W/m2
17:12 1.8 °C -4.7 °C 1028.3 hPa SW 1.6 km/h 3.2 km/h 62% 0 mm 19 W/m2
17:18 1.8 °C -4.7 °C 1028.3 hPa Calm   3.2 km/h 62% 0 mm 14 W/m2
17:24 1.7 °C -4.8 °C 1028.3 hPa Calm   3.2 km/h 62% 0 mm 11 W/m2
17:30 1.7 °C -4.6 °C 1028.7 hPa Calm     63% 0 mm 7 W/m2
17:36 1.7 °C -4.6 °C 1028.7 hPa SW 1.6 km/h 3.2 km/h 63% 0 mm 0 W/m2
17:42 1.7 °C -4.6 °C 1028.7 hPa SW 1.6 km/h 1.6 km/h 63% 0 mm 0 W/m2
17:48 1.7 °C -4.6 °C 1028.7 hPa SW 1.6 km/h 1.6 km/h 63% 0 mm 0 W/m2
17:54 1.7 °C -4.6 °C 1029.3 hPa SW 1.6 km/h 4.8 km/h 63% 0 mm 0 W/m2
18:00 1.7 °C -4.6 °C 1029.3 hPa SW 1.6 km/h 1.6 km/h 63% 0 mm 0 W/m2
18:06 1.7 °C -4.6 °C 1029.3 hPa SW 1.6 km/h 3.2 km/h 63% 0 mm 0 W/m2
18:12 1.5 °C -4.8 °C 1029.7 hPa SW 1.6 km/h 1.6 km/h 63% 0 mm 0 W/m2
18:18 1.4 °C -4.9 °C 1029.7 hPa Calm   1.6 km/h 63% 0 mm 0 W/m2
18:24 1.3 °C -5 °C 1029.7 hPa Calm     63% 0 mm 0 W/m2
18:30 1.1 °C -5.2 °C 1029.7 hPa Calm     63% 0 mm 0 W/m2
18:36 0.7 °C -5.1 °C 1029.7 hPa Calm     65% 0 mm 0 W/m2
18:42 0.3 °C -5.3 °C 1029.7 hPa Calm     66% 0 mm 0 W/m2
18:48 -0.2 °C -5.4 °C 1030 hPa Calm     68% 0 mm 0 W/m2
18:54 -0.4 °C -5.4 °C 1029.7 hPa Calm     69% 0 mm 0 W/m2
19:00 -0.9 °C -5.7 °C 1030 hPa Calm     70% 0 mm 0 W/m2
19:06 -1.2 °C -5.8 °C 1030 hPa Calm     71% 0 mm 0 W/m2
19:12 -1.5 °C -5.9 °C 1030 hPa Calm     72% 0 mm 0 W/m2
19:18 -1.7 °C -5.9 °C 1030 hPa Calm     73% 0 mm 0 W/m2
19:24 -1.8 °C -6.1 °C 1030 hPa Calm     73% 0 mm 0 W/m2
19:30 -2 °C -6 °C 1030 hPa Calm     74% 0 mm 0 W/m2
19:36 -2.1 °C -5.9 °C 1030 hPa Calm     75% 0 mm 0 W/m2
19:42 -2.2 °C -5.9 °C 1029.7 hPa Calm     76% 0 mm 0 W/m2
19:48 -2.4 °C -6.1 °C 1029.7 hPa Calm     76% 0 mm 0 W/m2
19:56 -2.5 °C -6 °C 1029.7 hPa Calm     77% 0 mm 0 W/m2
20:02 -2.7 °C -6 °C 1029.7 hPa Calm     78% 0 mm 0 W/m2
20:08 -2.8 °C -6.1 °C 1029.3 hPa Calm     78% 0 mm 0 W/m2
20:14 -2.9 °C -6.1 °C 1029.3 hPa Calm     79% 0 mm 0 W/m2
20:20 -3.1 °C -6 °C 1029.3 hPa Calm     80% 0 mm 0 W/m2
20:26 -3.2 °C -6.1 °C 1029.3 hPa Calm     80% 0 mm 0 W/m2
20:32 -3.2 °C -6 °C 1029.3 hPa Calm     81% 0 mm 0 W/m2
20:38 -3.3 °C -6.1 °C 1029.3 hPa Calm     81% 0 mm 0 W/m2
20:44 -3.3 °C -6.1 °C 1029.3 hPa Calm     81% 0 mm 0 W/m2
20:50 -3.4 °C -6 °C 1029.3 hPa Calm     82% 0 mm 0 W/m2
20:56 -3.4 °C -6 °C 1029.3 hPa Calm     82% 0 mm 0 W/m2
21:02 -3.4 °C -6.1 °C 1029.3 hPa Calm     82% 0 mm 0 W/m2
21:08 -3.4 °C -6.1 °C 1029.3 hPa Calm     82% 0 mm 0 W/m2
21:14 -3.4 °C -6.1 °C 1029 hPa Calm     82% 0 mm 0 W/m2
21:20 -3.3 °C -5.8 °C 1029 hPa Calm     83% 0 mm 0 W/m2
21:26 -3.3 °C -5.9 °C 1028.7 hPa SW 1.6 km/h 1.6 km/h 82% 0 mm 0 W/m2
21:32 -2.8 °C -5.4 °C 1028.7 hPa SSE 1.6 km/h 3.2 km/h 82% 0 mm 0 W/m2
21:38 -2.3 °C -5.3 °C 1028.7 hPa SSE 3.2 km/h 6.4 km/h 80% 0 mm 0 W/m2
21:44 -2.1 °C -5.3 °C 1028.7 hPa SSE 3.2 km/h 6.4 km/h 79% 0 mm 0 W/m2
21:50 -1.9 °C -5.4 °C 1028.7 hPa SSE 3.2 km/h 4.8 km/h 77% 0 mm 0 W/m2
21:56 -1.7 °C -5.5 °C 1028.7 hPa SE 3.2 km/h 4.8 km/h 75% 0 mm 0 W/m2
22:02 -1.7 °C -5.7 °C 1028.7 hPa SE 1.6 km/h 3.2 km/h 74% 0 mm 0 W/m2
22:08 -1.6 °C -5.7 °C 1028.7 hPa SSE 3.2 km/h 4.8 km/h 74% 0 mm 0 W/m2
22:14 -1.6 °C -5.8 °C 1028.3 hPa SSE 3.2 km/h 4.8 km/h 73% 0 mm 0 W/m2
22:20 -1.5 °C -5.7 °C 1028.3 hPa SE 3.2 km/h 4.8 km/h 73% 0 mm 0 W/m2
22:26 -1.6 °C -5.9 °C 1028.3 hPa SE 3.2 km/h 4.8 km/h 72% 0 mm 0 W/m2
22:32 -1.6 °C -6 °C 1028.3 hPa SSE 1.6 km/h 4.8 km/h 72% 0 mm 0 W/m2
22:38 -1.7 °C -6.1 °C 1028.3 hPa SSE 1.6 km/h 4.8 km/h 72% 0 mm 0 W/m2
22:44 -1.8 °C -6 °C 1028.3 hPa SSE 1.6 km/h 1.6 km/h 73% 0 mm 0 W/m2
22:50 -2.1 °C -6.3 °C 1028.3 hPa Calm     73% 0 mm 0 W/m2
22:56 -2.5 °C -6.3 °C 1028 hPa Calm   4.8 km/h 75% 0 mm 0 W/m2
23:02 -2.7 °C -6.3 °C 1028 hPa Calm     76% 0 mm 0 W/m2
23:08 -2.7 °C -6.2 °C 1027.7 hPa Calm     77% 0 mm 0 W/m2
23:14 -2.6 °C -6.1 °C 1027.7 hPa ESE 1.6 km/h 1.6 km/h 77% 0 mm 0 W/m2
23:20 -2.4 °C -6.1 °C 1027.3 hPa ESE 1.6 km/h 1.6 km/h 76% 0 mm 0 W/m2
23:26 -2.2 °C -6 °C 1027.7 hPa East 1.6 km/h 1.6 km/h 75% 0 mm 0 W/m2
23:32 -2.1 °C -6.1 °C 1027.3 hPa East 1.6 km/h 1.6 km/h 74% 0 mm 0 W/m2
23:38 -2.1 °C -6.1 °C 1027.3 hPa ESE 1.6 km/h 6.4 km/h 74% 0 mm 0 W/m2
23:44 -2 °C -6 °C 1027 hPa ESE 1.6 km/h 3.2 km/h 74% 0 mm 0 W/m2
23:50 -1.9 °C -5.9 °C 1027 hPa SE 3.2 km/h 3.2 km/h 74% 0 mm 0 W/m2
23:56 -1.8 °C -6.1 °C 1027 hPa East 3.2 km/h 3.2 km/h 73% 0 mm 0 W/m2
Country Meadow, Clay, NY, USA
Compliments of Weather Underground - 2 mb